DW0731 Scarsdale NY US current weather conditions

sailwx.info

Wind from 144

Air temperature 18.9° C
Dewpoint 18.4° C

Last reported at 2019-Jun-19 13:01 UTC.
Time now 2019-Jun-19 13:47 UTC

Location: N 40°58' W 073°47'.
View on Google Maps.

See reports from other nearby stations

  
Tides and Currents Weather Stations Pressure Air Temp Water Temp Dewpoint Dewpoint Depression Visibility Wind Speed Wind Dir Waves Ship Positions
date/time (UTC)wind fromknots sea level pressurealtimeterstation pressurevisibilityair tempwater tempwave heightnotes
2019-Jun-19 13:01 144 18.9
2019-Jun-19 12:45 087 0 gusting 2 18.9
2019-Jun-19 12:30 136 0 gusting 3 18.9
2019-Jun-19 12:15 119 0 gusting 5 18.9
2019-Jun-19 12:01 089 18.9
2019-Jun-19 11:46 085 0 gusting 5 18.9
2019-Jun-19 11:31 055 18.9
2019-Jun-19 11:15 035 18.9
2019-Jun-19 11:01 035 18.9
2019-Jun-19 10:46 035 18.9
2019-Jun-19 10:30 035 18.3
2019-Jun-19 10:16 035 18.3
2019-Jun-19 10:00 035 18.3
2019-Jun-19 09:45 035 18.3
2019-Jun-19 09:30 035 18.3
2019-Jun-19 09:15 035 18.3
2019-Jun-19 09:00 035 18.3
2019-Jun-19 08:30 035 18.3
2019-Jun-19 08:15 035 18.3
2019-Jun-19 08:01 035 18.3
2019-Jun-19 07:47 035 18.3
2019-Jun-19 07:32 035 18.3
2019-Jun-19 07:17 035 18.3
2019-Jun-19 07:02 035 18.3
2019-Jun-19 06:46 035 18.3
2019-Jun-19 06:31 035 18.3
2019-Jun-19 06:16 035 18.3
2019-Jun-19 06:01 035 18.3
2019-Jun-19 05:46 035 18.3
2019-Jun-19 05:31 035 18.3
2019-Jun-19 05:16 035 18.3
2019-Jun-19 05:02 035 18.3
2019-Jun-19 04:46 035 18.3
2019-Jun-19 04:31 035 18.3
2019-Jun-19 04:17 035 18.3
2019-Jun-19 04:01 035 18.3
2019-Jun-19 03:46 035 18.3
2019-Jun-19 03:32 035 18.3
2019-Jun-19 03:15 065 18.3
2019-Jun-19 03:01 059 18.3
2019-Jun-19 02:47 065 18.9
2019-Jun-19 02:31 056 18.9
2019-Jun-19 02:16 060 18.9
2019-Jun-19 02:01 059 18.9
2019-Jun-19 01:46 055 18.9
2019-Jun-19 01:31 058 0 gusting 5 18.9
2019-Jun-19 01:16 051 18.9
2019-Jun-19 01:00 079 18.9
2019-Jun-19 00:45 057 0 gusting 6 19.4
2019-Jun-19 00:30 061 19.4
2019-Jun-19 00:16 058 0 gusting 4 19.4
2019-Jun-19 00:00 069 19.4
2019-Jun-18 23:47 078 19.4
2019-Jun-18 23:30 088 0 gusting 3 20.0
2019-Jun-18 23:15 065 0 gusting 4 20.0
2019-Jun-18 23:01 078 0 gusting 4 20.0
2019-Jun-18 22:46 069 20.0
2019-Jun-18 22:31 069 0 gusting 3 20.6
2019-Jun-18 22:16 069 20.6
2019-Jun-18 22:01 057 20.6
2019-Jun-18 21:45 057 20.0
2019-Jun-18 21:30 057 20.0
2019-Jun-18 21:00 053 20.0
2019-Jun-18 20:45 062 20.0
2019-Jun-18 20:30 060 20.6
2019-Jun-18 20:16 068 20.6
2019-Jun-18 20:00 068 0 gusting 2 20.6
2019-Jun-18 19:45 063 0 gusting 2 20.6
2019-Jun-18 19:30 097 20.6
2019-Jun-18 19:15 155 21.1
2019-Jun-18 19:00 155 20.6
2019-Jun-18 18:45 120 20.6
2019-Jun-18 18:30 120 20.6
2019-Jun-18 18:15 173 20.0
2019-Jun-18 18:00 103 1 gusting 5 20.0
2019-Jun-18 17:45 085 20.0
2019-Jun-18 17:30 128 0 gusting 5 20.0
2019-Jun-18 17:15 095 20.6
2019-Jun-18 17:00 119 20.6
2019-Jun-18 16:45 090 20.6
2019-Jun-18 16:30 057 21.1
2019-Jun-18 16:16 092 0 gusting 6 21.1
2019-Jun-18 16:01 080 21.1
2019-Jun-18 15:47 133 21.1
2019-Jun-18 15:31 134 21.1
2019-Jun-18 15:16 148 21.1
2019-Jun-18 15:01 146 21.1
2019-Jun-18 14:46 149 21.1
2019-Jun-18 14:31 136 20.6
2019-Jun-18 14:16 143 20.6
2019-Jun-18 14:01 167 20.6
2019-Jun-18 13:46 180 20.6
2019-Jun-18 13:32 136 20.0
2019-Jun-18 13:16 133 20.0
2019-Jun-18 13:02 165 20.0
2019-Jun-18 12:46 114 19.4
2019-Jun-18 12:31 119 19.4
2019-Jun-18 12:15 119 19.4
2019-Jun-18 12:01 128 19.4
2019-Jun-18 11:46 132 19.4
2019-Jun-18 11:31 172 19.4
2019-Jun-18 11:16 172 19.4
2019-Jun-18 11:00 173 19.4
2019-Jun-18 10:45 173 19.4
2019-Jun-18 10:30 184 19.4
2019-Jun-18 10:15 184 19.4
2019-Jun-18 10:00 184 19.4
2019-Jun-18 09:45 184 19.4
2019-Jun-18 09:30 184 19.4
2019-Jun-18 09:15 184 19.4
2019-Jun-18 09:00 184 19.4
2019-Jun-18 08:45 186 19.4
2019-Jun-18 08:30 191 19.4
2019-Jun-18 08:15 191 19.4
2019-Jun-18 08:00 190 19.4
2019-Jun-18 07:45 191 19.4
2019-Jun-18 07:30 191 19.4
2019-Jun-18 07:15 191 19.4
2019-Jun-18 07:00 191 19.4
2019-Jun-18 06:45 190 19.4
2019-Jun-18 06:30 191 19.4
2019-Jun-18 06:15 191 19.4
2019-Jun-18 05:45 191 19.4
2019-Jun-18 05:30 191 19.4
2019-Jun-18 05:17 191 19.4
2019-Jun-18 05:02 191 19.4
2019-Jun-18 04:47 191 19.4
2019-Jun-18 04:31 190 19.4
2019-Jun-18 04:17 191 19.4
2019-Jun-18 04:01 191 20.0
2019-Jun-18 03:46 191 20.0
2019-Jun-18 03:31 191 20.0
2019-Jun-18 03:16 191 20.0
2019-Jun-18 03:02 190 20.0
2019-Jun-18 02:45 188 20.0
2019-Jun-18 02:30 191 20.6
2019-Jun-18 02:16 193 20.6
2019-Jun-18 02:01 193 21.1
2019-Jun-18 01:46 188 21.1
2019-Jun-18 01:32 189 21.7
2019-Jun-18 01:16 190 21.7
2019-Jun-18 01:00 189 21.7
2019-Jun-18 00:46 185 22.2
2019-Jun-18 00:32 173 22.2
2019-Jun-18 00:15 180 22.8
2019-Jun-18 00:02 190 22.8
2019-Jun-17 23:46 191 22.8
2019-Jun-17 23:32 193 23.3
2019-Jun-17 23:16 140 23.9
2019-Jun-17 23:01 196 25.0
2019-Jun-17 22:46 196 25.0
2019-Jun-17 22:31 198 25.6
2019-Jun-17 22:16 199 25.0
2019-Jun-17 22:01 084 0 gusting 2 25.0
2019-Jun-17 21:46 156 24.4
2019-Jun-17 21:31 267 24.4
2019-Jun-17 21:16 268 24.4
2019-Jun-17 21:01 267 24.4
2019-Jun-17 20:46 267 24.4
2019-Jun-17 20:31 218 24.4
2019-Jun-17 20:16 211 24.4
2019-Jun-17 20:01 247 23.9
2019-Jun-17 19:45 232 23.9
2019-Jun-17 19:30 240 23.9
2019-Jun-17 19:15 282 23.9
2019-Jun-17 19:01 282 23.3
2019-Jun-17 18:46 229 23.9
2019-Jun-17 18:31 250 23.3